User: anonymous   Login
Location: Albany
(35.0000°S, 118.0000°E)
Time: 19:07:42
(UTC-05:00)
Language:

Centaur D-1AR AC-48 - Orbit

View from above orbital plane
View from above orbital plane
View from above satellite
View from above satellite

Ground track
Ground track

The orbit data is extracted from the following two-line orbital elements,

1 10779U 78035B   14330.52937914 -.00000057  00000-0  66283-3 0  9810
2 10779 021.7699 033.0001 7176211 157.9081 357.3182 02.22637483297883
Epoch (UTC): 26 November 2014 12:42:18
Eccentricity: 0.7176211
inclination: 21.7699°
perigee height: 617 km
apogee height: 36174 km
right ascension of ascending node: 33.0001°
argument of perigee: 157.9081°
revolutions per day: 2.22637483
mean anomaly at epoch: 357.3182°
orbit number at epoch: 29788

The dashed part of the orbit path shows where the satellite is in the earth's shadow,  

DLR